TimeMDT,TemperatureF,Dew PointF,Humidity,Sea Level PressureIn,VisibilityMPH,Wind Direction,Wind SpeedMPH,Gust SpeedMPH,PrecipitationIn,Events,Conditions,WindDirDegrees,DateUTC
12:15 AM,57.2,44.6,63,30.23,10.0,Calm,Calm,-,N/A,,Clear,0,2013-06-30 06:15:00
12:35 AM,59.0,44.6,59,30.23,10.0,NNW,3.5,-,N/A,,Clear,340,2013-06-30 06:35:00
12:55 AM,59.0,44.6,59,30.23,10.0,North,5.8,-,N/A,,Clear,360,2013-06-30 06:55:00
1:15 AM,59.0,44.6,59,30.24,10.0,North,-9999.0,-,N/A,,Clear,0,2013-06-30 07:15:00
1:35 AM,59.0,44.6,59,30.24,10.0,North,5.8,-,N/A,,Clear,10,2013-06-30 07:35:00
1:55 AM,59.0,44.6,59,30.23,10.0,North,6.9,-,N/A,,Clear,360,2013-06-30 07:55:00
2:15 AM,59.0,44.6,59,30.23,10.0,North,6.9,-,N/A,,Clear,360,2013-06-30 08:15:00
2:35 AM,55.4,44.6,67,30.24,10.0,South,4.6,-,N/A,,Clear,190,2013-06-30 08:35:00
2:55 AM,55.4,44.6,67,30.23,10.0,East,3.5,-,N/A,,Clear,80,2013-06-30 08:55:00
3:15 AM,55.4,44.6,67,30.23,10.0,NNE,3.5,-,N/A,,Clear,20,2013-06-30 09:15:00
3:35 AM,57.2,44.6,63,30.23,10.0,NNE,3.5,-,N/A,,Clear,20,2013-06-30 09:35:00
3:55 AM,57.2,44.6,63,30.23,10.0,NNE,3.5,-,N/A,,Scattered Clouds,30,2013-06-30 09:55:00
4:15 AM,57.2,44.6,63,30.23,10.0,Calm,Calm,-,N/A,,Scattered Clouds,0,2013-06-30 10:15:00
4:35 AM,55.4,44.6,67,30.23,10.0,Calm,Calm,-,N/A,,Clear,0,2013-06-30 10:35:00
4:55 AM,55.4,44.6,67,30.22,10.0,Calm,Calm,-,N/A,,Clear,0,2013-06-30 10:55:00
5:15 AM,55.4,44.6,67,30.22,10.0,North,3.5,-,N/A,,Clear,350,2013-06-30 11:15:00
5:35 AM,55.4,44.6,67,30.22,10.0,North,3.5,-,N/A,,Clear,350,2013-06-30 11:35:00
5:55 AM,57.2,44.6,63,30.22,10.0,Calm,Calm,-,N/A,,Clear,0,2013-06-30 11:55:00
6:15 AM,57.2,44.6,63,30.23,10.0,North,-9999.0,-,N/A,,Clear,0,2013-06-30 12:15:00
6:35 AM,55.4,46.4,72,30.23,10.0,Calm,Calm,-,N/A,,Clear,0,2013-06-30 12:35:00
6:55 AM,55.4,46.4,72,30.23,10.0,Calm,Calm,-,N/A,,Clear,0,2013-06-30 12:55:00
7:15 AM,59.0,46.4,63,30.23,10.0,Calm,Calm,-,N/A,,Clear,0,2013-06-30 13:15:00
7:35 AM,60.8,48.2,63,30.24,10.0,North,-9999.0,-,N/A,,Clear,0,2013-06-30 13:35:00
7:55 AM,64.4,44.6,49,30.24,10.0,North,-9999.0,-,N/A,,Clear,0,2013-06-30 13:55:00
8:15 AM,68.0,44.6,43,30.24,10.0,ESE,10.4,-,N/A,,Clear,110,2013-06-30 14:15:00
8:35 AM,69.8,44.6,40,30.24,10.0,North,-9999.0,-,N/A,,Clear,0,2013-06-30 14:35:00
8:55 AM,69.8,44.6,40,30.24,10.0,ESE,10.4,-,N/A,,Clear,120,2013-06-30 14:55:00
9:15 AM,71.6,44.6,38,30.24,10.0,North,-9999.0,-,N/A,,Clear,0,2013-06-30 15:15:00
9:35 AM,71.6,44.6,38,30.23,10.0,SSE,9.2,-,N/A,,Clear,160,2013-06-30 15:35:00
9:55 AM,71.6,44.6,38,30.24,10.0,SE,3.5,-,N/A,,Clear,140,2013-06-30 15:55:00
10:15 AM,73.4,42.8,33,30.23,10.0,Calm,Calm,-,N/A,,Clear,0,2013-06-30 16:15:00
10:35 AM,73.4,42.8,33,30.23,10.0,Calm,Calm,-,N/A,,Clear,0,2013-06-30 16:35:00
10:55 AM,73.4,42.8,33,30.22,10.0,SE,9.2,-,N/A,,Clear,140,2013-06-30 16:55:00
11:15 AM,75.2,42.8,31,30.22,10.0,South,8.1,-,N/A,,Clear,170,2013-06-30 17:15:00
11:35 AM,75.2,42.8,31,30.21,10.0,Calm,Calm,-,N/A,,Clear,0,2013-06-30 17:35:00
11:55 AM,77.0,42.8,29,30.21,10.0,ESE,4.6,-,N/A,,Clear,110,2013-06-30 17:55:00
12:15 PM,77.0,41.0,28,30.21,10.0,Calm,Calm,-,N/A,,Clear,0,2013-06-30 18:15:00
12:35 PM,78.8,41.0,26,30.20,10.0,SSE,5.8,-,N/A,,Clear,150,2013-06-30 18:35:00
12:55 PM,78.8,41.0,26,30.20,10.0,South,3.5,-,N/A,,Clear,170,2013-06-30 18:55:00
1:15 PM,80.6,41.0,24,30.20,10.0,WNW,8.1,-,N/A,,Clear,300,2013-06-30 19:15:00
1:35 PM,80.6,41.0,24,30.20,10.0,West,3.5,-,N/A,,Clear,260,2013-06-30 19:35:00
1:55 PM,80.6,41.0,24,30.19,10.0,North,5.8,-,N/A,,Clear,360,2013-06-30 19:55:00
2:15 PM,80.6,41.0,24,30.19,10.0,Calm,Calm,-,N/A,,Clear,0,2013-06-30 20:15:00
2:35 PM,82.4,41.0,23,30.18,10.0,WNW,6.9,-,N/A,,Clear,300,2013-06-30 20:35:00
2:55 PM,82.4,41.0,23,30.18,10.0,West,8.1,-,N/A,,Clear,280,2013-06-30 20:55:00
3:15 PM,82.4,39.2,21,30.17,10.0,WSW,5.8,-,N/A,,Clear,240,2013-06-30 21:15:00
3:35 PM,82.4,41.0,23,30.17,10.0,WNW,9.2,-,N/A,,Clear,300,2013-06-30 21:35:00
3:55 PM,82.4,42.8,25,30.17,10.0,WNW,9.2,-,N/A,,Clear,290,2013-06-30 21:55:00
4:15 PM,84.2,42.8,23,30.17,10.0,NNW,4.6,-,N/A,,Clear,330,2013-06-30 22:15:00
4:35 PM,84.2,41.0,22,30.17,10.0,North,5.8,-,N/A,,Clear,360,2013-06-30 22:35:00
4:55 PM,84.2,41.0,22,30.17,10.0,ESE,5.8,-,N/A,,Clear,120,2013-06-30 22:55:00
5:15 PM,80.6,44.6,28,30.17,10.0,ESE,13.8,20.7,N/A,,Clear,120,2013-06-30 23:15:00
5:35 PM,80.6,44.6,28,30.17,10.0,ESE,10.4,19.6,N/A,,Scattered Clouds,110,2013-06-30 23:35:00
5:55 PM,80.6,44.6,28,30.17,10.0,North,-9999.0,-,N/A,,Clear,0,2013-06-30 23:55:00
6:15 PM,80.6,44.6,28,30.17,10.0,ESE,8.1,-,N/A,,Clear,120,2013-07-01 00:15:00
6:35 PM,80.6,44.6,28,30.17,10.0,ESE,10.4,-,N/A,,Clear,120,2013-07-01 00:35:00
6:55 PM,78.8,44.6,30,30.17,10.0,ESE,12.7,-,N/A,,Clear,120,2013-07-01 00:55:00
7:15 PM,77.0,44.6,32,30.17,10.0,SE,10.4,-,N/A,,Clear,130,2013-07-01 01:15:00
7:35 PM,75.2,44.6,34,30.17,10.0,SE,8.1,-,N/A,,Clear,130,2013-07-01 01:35:00
7:55 PM,77.0,46.4,34,30.18,10.0,North,-9999.0,-,N/A,,Clear,0,2013-07-01 01:55:00
8:15 PM,73.4,48.2,41,30.18,10.0,North,-9999.0,-,N/A,,Clear,0,2013-07-01 02:15:00
8:35 PM,71.6,50.0,46,30.19,10.0,North,-9999.0,-,N/A,,Clear,0,2013-07-01 02:35:00
8:55 PM,71.6,48.2,43,30.20,10.0,East,4.6,-,N/A,,Clear,100,2013-07-01 02:55:00
9:15 PM,69.8,48.2,46,30.21,10.0,North,-9999.0,-,N/A,,Scattered Clouds,0,2013-07-01 03:15:00
9:35 PM,66.2,48.2,52,30.22,10.0,SE,4.6,-,N/A,,Clear,130,2013-07-01 03:35:00
9:55 PM,64.4,46.4,52,30.23,10.0,ESE,4.6,-,N/A,,Clear,120,2013-07-01 03:55:00
10:15 PM,64.4,46.4,52,30.24,10.0,East,5.8,-,N/A,,Clear,100,2013-07-01 04:15:00
10:35 PM,62.6,46.4,55,30.24,10.0,SE,5.8,-,N/A,,Clear,130,2013-07-01 04:35:00
10:55 PM,62.6,46.4,55,30.24,10.0,North,-9999.0,-,N/A,,Clear,0,2013-07-01 04:55:00
11:15 PM,62.6,46.4,55,30.25,10.0,SE,4.6,-,N/A,,Clear,130,2013-07-01 05:15:00
11:35 PM,64.4,46.4,52,30.25,10.0,SE,4.6,-,N/A,,Clear,140,2013-07-01 05:35:00
11:55 PM,62.6,46.4,55,30.25,10.0,North,-9999.0,-,N/A,,Clear,0,2013-07-01 05:55:00